When you browse on this site, cookies collect data to enhance your experience and personalize the content and advertising you see.
Visit our Privacy Policy to learn more. By continuing to use the site, you agree to this use of cookies and data.
  • In United Kingdom
  • List of Countries
  • For 7 days
  • Water Temperature
  • Satellite Maps
  • Weather Map
  • Weather Widgets
  • user-avatar
    Login

    Hourly Weather Liberia

    Today, 22 April, Monday

    Time Temperature Precipitation Wind Pressure Humidity
    00:00 +27°C° 0 mm 5 mps 747 mmHg 72%
    01:00 +27°C° 0 mm 5 mps 746 mmHg 72%
    02:00 +27°C° 0 mm 5 mps 746 mmHg 73%
    03:00 +27°C° 0 mm 5 mps 745 mmHg 73%
    04:00 +27°C° 0 mm 5 mps 746 mmHg 73%
    05:00 +27°C° 0 mm 5 mps 746 mmHg 73%
    06:00 +27°C° 0 mm 6 mps 746 mmHg 73%
    07:00 +29°C° 0 mm 6 mps 746 mmHg 65%
    08:00 +32°C° 0 mm 6 mps 746 mmHg 56%
    09:00 +34°C° 0 mm 6 mps 747 mmHg 48%
    10:00 +35°C° 0 mm 6 mps 746 mmHg 44%
    11:00 +38°C° 0 mm 6 mps 746 mmHg 41%
    12:00 +39°C° 0 mm 6 mps 746 mmHg 37%
    13:00 +39°C° 0 mm 6 mps 745 mmHg 37%
    14:00 +39°C° 0 mm 6 mps 745 mmHg 37%
    15:00 +39°C° 0 mm 6 mps 744 mmHg 37%
    16:00 +36°C° 0 mm 5 mps 744 mmHg 41%
    17:00 +35°C° 0 mm 4 mps 744 mmHg 46%
    18:00 +33°C° 0 mm 4 mps 744 mmHg 50%
    19:00 +32°C° 0 mm 4 mps 745 mmHg 55%
    20:00 +30°C° 0 mm 4 mps 745 mmHg 60%
    21:00 +29°C° 0 mm 5 mps 746 mmHg 65%
    22:00 +28°C° 0 mm 5 mps 746 mmHg 68%
    23:00 +28°C° 0 mm 4 mps 746 mmHg 70%

    Tomorrow, 23 April, Tuesday

    Time Temperature Precipitation Wind Pressure Humidity
    00:00 +27°C° 0 mm 4 mps 746 mmHg 73%
    01:00 +27°C° 0 mm 4 mps 746 mmHg 75%
    02:00 +26°C° 0 mm 4 mps 745 mmHg 76%
    03:00 +26°C° 0 mm 4 mps 745 mmHg 78%
    04:00 +26°C° 0 mm 4 mps 745 mmHg 78%
    05:00 +26°C° 0 mm 4 mps 745 mmHg 78%
    06:00 +26°C° 0 mm 4 mps 746 mmHg 78%
    07:00 +28°C° 0 mm 4 mps 746 mmHg 68%
    08:00 +30°C° 0 mm 4 mps 746 mmHg 57%
    09:00 +34°C° 0 mm 5 mps 747 mmHg 46%
    10:00 +35°C° 0 mm 5 mps 746 mmHg 41%
    11:00 +37°C° 0 mm 5 mps 746 mmHg 35%
    12:00 +40°C° 0 mm 5 mps 745 mmHg 30%
    13:00 +40°C° 0 mm 4 mps 745 mmHg 29%
    14:00 +40°C° 0 mm 4 mps 744 mmHg 29%
    15:00 +41°C° 0 mm 4 mps 743 mmHg 28%
    16:00 +38°C° 0 mm 3 mps 743 mmHg 33%
    17:00 +36°C° 0 mm 3 mps 743 mmHg 38%
    18:00 +34°C° 0 mm 3 mps 744 mmHg 43%
    19:00 +33°C° 0 mm 3 mps 744 mmHg 50%
    20:00 +30°C° 0 mm 3 mps 745 mmHg 56%
    21:00 +29°C° 0 mm 3 mps 746 mmHg 62%
    22:00 +28°C° 0 mm 3 mps 746 mmHg 67%
    23:00 +27°C° 0 mm 3 mps 746 mmHg 71%

    Day after tomorrow, 24 April, Wednesday

    Time Temperature Precipitation Wind Pressure Humidity
    00:00 +26°C° 0 mm 3 mps 746 mmHg 76%
    01:00 +26°C° 0 mm 3 mps 745 mmHg 78%
    02:00 +25°C° 0 mm 3 mps 745 mmHg 80%
    03:00 +25°C° 0 mm 3 mps 744 mmHg 82%
    04:00 +24°C° 0 mm 3 mps 745 mmHg 81%
    05:00 +24°C° 0 mm 3 mps 745 mmHg 80%
    06:00 +24°C° 0 mm 3 mps 745 mmHg 79%
    07:00 +27°C° 0 mm 3 mps 746 mmHg 63%
    08:00 +30°C° 0 mm 3 mps 746 mmHg 48%
    09:00 +34°C° 0 mm 3 mps 747 mmHg 32%
    10:00 +36°C° 0 mm 3 mps 746 mmHg 28%
    11:00 +38°C° 0 mm 3 mps 746 mmHg 23%
    12:00 +40°C° 0 mm 2 mps 746 mmHg 19%
    13:00 +40°C° 0 mm 2 mps 745 mmHg 19%
    14:00 +40°C° 0 mm 2 mps 744 mmHg 19%
    15:00 +40°C° 0 mm 2 mps 743 mmHg 20%
    16:00 +37°C° 0 mm 2 mps 743 mmHg 28%
    17:00 +35°C° 0 mm 2 mps 743 mmHg 37%
    18:00 +31°C° 0 mm 2 mps 743 mmHg 46%
    19:00 +30°C° 0 mm 2 mps 744 mmHg 50%
    20:00 +29°C° 0 mm 2 mps 745 mmHg 54%
    21:00 +28°C° 0 mm 2 mps 745 mmHg 59%
    22:00 +28°C° 0 mm 2 mps 745 mmHg 61%
    23:00 +27°C° 0 mm 2 mps 745 mmHg 64%

    25 April, Thursday

    Time Temperature Precipitation Wind Pressure Humidity
    00:00 +26°C° 0 mm 2 mps 745 mmHg 66%
    01:00 +25°C° 0 mm 2 mps 745 mmHg 68%
    02:00 +25°C° 0 mm 2 mps 745 mmHg 70%
    03:00 +24°C° 0 mm 2 mps 744 mmHg 72%
    04:00 +24°C° 0 mm 2 mps 745 mmHg 69%
    05:00 +24°C° 0 mm 2 mps 745 mmHg 65%
    06:00 +24°C° 0 mm 2 mps 745 mmHg 62%
    07:00 +27°C° 0 mm 2 mps 746 mmHg 50%
    08:00 +31°C° 0 mm 2 mps 747 mmHg 39%
    09:00 +34°C° 0 mm 1 mps 747 mmHg 27%
    10:00 +37°C° 0 mm 2 mps 747 mmHg 24%
    11:00 +38°C° 0 mm 2 mps 746 mmHg 22%
    12:00 +40°C° 0 mm 2 mps 746 mmHg 19%
    13:00 +40°C° 0 mm 2 mps 745 mmHg 21%
    14:00 +39°C° 0 mm 3 mps 745 mmHg 23%
    15:00 +40°C° 0 mm 4 mps 744 mmHg 25%
    16:00 +37°C° 0 mm 4 mps 744 mmHg 33%
    17:00 +35°C° 0 mm 3 mps 744 mmHg 40%
    18:00 +31°C° 0 mm 3 mps 744 mmHg 48%
    19:00 +30°C° 0 mm 2 mps 745 mmHg 53%
    20:00 +29°C° 0 mm 1 mps 746 mmHg 57%
    21:00 +27°C° 0 mm 0 mps 746 mmHg 61%
    22:00 +26°C° 0 mm 0 mps 746 mmHg 64%
    23:00 +26°C° 0 mm 0 mps 746 mmHg 66%

    26 April, Friday

    Time Temperature Precipitation Wind Pressure Humidity
    00:00 +27°C° 0 mm 1 mps 746 mmHg 68%
    01:00 +27°C° 0 mm 1 mps 746 mmHg 70%
    02:00 +26°C° 0 mm 1 mps 745 mmHg 72%
    03:00 +26°C° 0 mm 1 mps 745 mmHg 74%
    04:00 +26°C° 0 mm 1 mps 745 mmHg 74%
    05:00 +26°C° 0 mm 1 mps 746 mmHg 75%
    06:00 +26°C° 0 mm 2 mps 746 mmHg 75%
    07:00 +29°C° 0 mm 2 mps 747 mmHg 64%
    08:00 +31°C° 0 mm 2 mps 747 mmHg 53%
    09:00 +35°C° 0 mm 2 mps 747 mmHg 41%
    10:00 +37°C° 0 mm 2 mps 747 mmHg 35%
    11:00 +38°C° 0 mm 2 mps 746 mmHg 29%
    12:00 +40°C° 0 mm 2 mps 746 mmHg 23%
    13:00 +40°C° 0 mm 2 mps 745 mmHg 23%
    14:00 +40°C° 0 mm 2 mps 744 mmHg 23%
    15:00 +40°C° 0 mm 3 mps 743 mmHg 22%
    16:00 +38°C° 0 mm 3 mps 744 mmHg 30%
    17:00 +35°C° 0 mm 3 mps 744 mmHg 37%
    18:00 +33°C° 0 mm 3 mps 744 mmHg 45%
    19:00 +31°C° 0 mm 2 mps 745 mmHg 51%
    20:00 +30°C° 0 mm 1 mps 745 mmHg 57%
    21:00 +29°C° 0 mm 1 mps 746 mmHg 64%
    22:00 +28°C° 0 mm 1 mps 746 mmHg 66%
    23:00 +28°C° 0 mm 1 mps 745 mmHg 67%

    27 April, Saturday

    Time Temperature Precipitation Wind Pressure Humidity
    00:00 +27°C° 0 mm 1 mps 745 mmHg 69%
    01:00 +27°C° 0 mm 1 mps 745 mmHg 69%
    02:00 +27°C° 0 mm 1 mps 745 mmHg 70%
    03:00 +26°C° 0 mm 1 mps 744 mmHg 71%
    04:00 +26°C° 0 mm 1 mps 745 mmHg 68%
    05:00 +26°C° 0 mm 2 mps 745 mmHg 65%
    06:00 +26°C° 0 mm 2 mps 745 mmHg 62%
    07:00 +29°C° 0 mm 2 mps 746 mmHg 51%
    08:00 +32°C° 0 mm 2 mps 746 mmHg 40%
    09:00 +35°C° 0 mm 1 mps 746 mmHg 29%
    10:00 +37°C° 0 mm 2 mps 746 mmHg 27%
    11:00 +39°C° 0 mm 2 mps 745 mmHg 25%
    12:00 +41°C° 0 mm 2 mps 745 mmHg 22%
    13:00 +40°C° 0 mm 3 mps 744 mmHg 24%
    14:00 +40°C° 0 mm 3 mps 743 mmHg 26%
    15:00 +41°C° 0 mm 4 mps 742 mmHg 27%
    16:00 +37°C° 0 mm 3 mps 743 mmHg 37%
    17:00 +35°C° 0 mm 3 mps 743 mmHg 47%
    18:00 +31°C° 0 mm 3 mps 743 mmHg 56%
    19:00 +30°C° 0 mm 2 mps 744 mmHg 60%
    20:00 +29°C° 0 mm 1 mps 744 mmHg 64%
    21:00 +29°C° 0 mm 1 mps 745 mmHg 69%
    22:00 +28°C° 0 mm 1 mps 745 mmHg 70%
    23:00 +27°C° 0 mm 1 mps 745 mmHg 71%
    Show more